This is the latest recevied weather packets stored in our database for station/object K4AMF. If no packets are shown the sender has not sent any weather packets the latest 10 day(s).
| Time | Temp. | Humidity | Pressure | Rain* | Wind** | Luminosity | Snow |
|---|---|---|---|---|---|---|---|
| 1778117463 | 26.11° C | 72% | 1016.2 hPa | 0 mm | - | 0 W/m² | - |
| 1778117161 | 26.67° C | 72% | 1016.2 hPa | 0 mm | - | 0 W/m² | - |
| 1778116855 | 26.67° C | 71% | 1016.2 hPa | 0 mm | - | 0 W/m² | - |
| 1778116553 | 26.67° C | 72% | 1016.3 hPa | 0 mm | - | 0 W/m² | - |
| 1778116245 | 26.67° C | 72% | 1016.2 hPa | 0 mm | - | 0 W/m² | - |
| 1778115938 | 26.67° C | 72% | 1016.1 hPa | 0 mm | - | 0 W/m² | - |
| 1778115635 | 26.67° C | 72% | 1016.1 hPa | 0 mm | - | 0 W/m² | - |
| 1778115333 | 26.67° C | 72% | 1015.9 hPa | 0 mm | - | 0 W/m² | - |
| 1778115023 | 26.67° C | 72% | 1016.1 hPa | 0 mm | - | 0 W/m² | - |
| 1778114720 | 27.22° C | 73% | 1015.8 hPa | 0 mm | - | 0 W/m² | - |
| 1778114418 | 27.22° C | 72% | 1015.9 hPa | 0 mm | - | 0 W/m² | - |
| 1778114113 | 27.22° C | 72% | 1015.7 hPa | 0 mm | - | 0 W/m² | - |
| 1778113808 | 27.22° C | 71% | 1015.6 hPa | 0 mm | - | 0 W/m² | - |
| 1778113505 | 27.22° C | 71% | 1015.7 hPa | 0 mm | - | 0 W/m² | - |
| 1778113201 | 27.22° C | 71% | 1015.7 hPa | 0 mm | - | 0 W/m² | - |
| 1778112898 | 27.78° C | 71% | 1015.5 hPa | 0 mm | - | 0 W/m² | - |
| 1778112596 | 27.78° C | 71% | 1015.1 hPa | 0 mm | - | 0 W/m² | - |
| 1778112291 | 27.78° C | 71% | 1015.1 hPa | 0 mm | - | 2 W/m² | - |
| 1778111987 | 27.78° C | 70% | 1015.1 hPa | 0 mm | - | 5 W/m² | - |
| 1778111685 | 27.78° C | 69% | 1015 hPa | 0 mm | - | 7 W/m² | - |
| 1778111380 | 28.33° C | 68% | 1015.2 hPa | 0 mm | - | 8 W/m² | - |
| 1778111078 | 28.33° C | 69% | 1015.2 hPa | 0 mm | - | 12 W/m² | - |
| 1778110775 | 28.89° C | 69% | 1014.8 hPa | 0 mm | - | 17 W/m² | - |
| 1778110472 | 28.89° C | 68% | 1015.1 hPa | 0 mm | - | 25 W/m² | - |
| 1778110168 | 28.89° C | 68% | 1014.8 hPa | 0 mm | - | 27 W/m² | - |
* Rain latest hour (hover to see other rain measurements)
** Current wind speed in m/s (hover to see current wind gust speed)